sat.trackr.live / text

‹ back to catalog

STARLINK-1656

NORAD 46353 · 2020-062AE

PAYLOAD ACTIVE UNKNOWN

§ Identity

Operator
Country
US
Launch date
2020-09-03
Launch site
AFETR
Launch vehicle
Mass (kg)
RCS (m²)

Purposes: comms

External: N2YO · Heavens-Above · Gunter

§ Orbital elements

Epoch: 2026-05-25T01:09:12.225024Z

Period
91.94 min
Inclination
53.0429°
Eccentricity
0.0005350
Mean motion
15.66254896 rev/d
Perigee alt
366.0 km
Apogee alt
373.2 km
Semi-major
6,747.8 km
B*
7.3872e-4
RAAN
347.7511°
Arg perigee
131.8813°
Mean anomaly
228.2659°
Rev number
31,646

§ Raw data

STARLINK-16561 46353U 20062AE  26145.04805816  .00077943  00000+0  73872-3 0  99902 46353  53.0429 347.7511 0005350 131.8813 228.2659 15.66254896316468

JSON: /api/v1/satellites/46353 · /tle

For live sub-satellite position, see the globe view (requires WebGL).

§ Visibility from observer

Set your observer location to see the next 7 days of passes ≥ 10°. The values pass through the URL so the page stays shareable.

No JS? Fill the form by hand. The geolocation button needs JavaScript.